Time,TemperatureF,DewpointF,PressureIn,WindDirection,WindDirectionDegrees,WindSpeedMPH,WindSpeedGustMPH,Humidity,HourlyPrecipIn,Conditions,Clouds,dailyrainin,SoftwareType,DateUTC
2013-01-15 00:02:00,-1.0,-12.0,-100.00,SSE,151,32.0,42.0,58,0.00,,,-99.99,,2013-01-15 07:02:00,
2013-01-15 00:12:00,-1.0,-12.0,-100.00,SSE,151,32.0,42.0,58,0.00,,,-99.99,,2013-01-15 07:12:00,
2013-01-15 00:22:00,-1.0,-12.0,-100.00,SSE,151,32.0,40.0,60,0.00,,,-99.99,,2013-01-15 07:22:00,
2013-01-15 00:32:00,-1.0,-12.0,-100.00,SSE,152,31.0,40.0,60,0.00,,,-99.99,,2013-01-15 07:32:00,
2013-01-15 00:42:00,-1.0,-12.0,-100.00,SSE,154,31.0,42.0,60,0.00,,,-99.99,,2013-01-15 07:42:00,
2013-01-15 00:52:00,-1.0,-12.0,-100.00,SSE,152,32.0,42.0,60,0.00,,,-99.99,,2013-01-15 07:52:00,
2013-01-15 01:02:00,-1.0,-11.0,-100.00,SSE,150,31.0,39.0,61,0.00,,,-99.99,,2013-01-15 08:02:00,
2013-01-15 01:12:00,-1.0,-11.0,-100.00,SSE,150,30.0,40.0,62,0.00,,,-99.99,,2013-01-15 08:12:00,
2013-01-15 01:22:00,-1.0,-10.0,-100.00,SSE,148,30.0,40.0,63,0.00,,,-99.99,,2013-01-15 08:22:00,
2013-01-15 01:32:00,-1.0,-10.0,-100.00,SSE,147,29.0,37.0,63,0.00,,,-99.99,,2013-01-15 08:32:00,
2013-01-15 01:42:00,-1.0,-10.0,-100.00,SE,145,29.0,38.0,64,0.00,,,-99.99,,2013-01-15 08:42:00,
2013-01-15 01:52:00,0.0,-10.0,-100.00,SE,143,27.0,37.0,64,0.00,,,-99.99,,2013-01-15 08:52:00,
2013-01-15 02:02:00,0.0,-10.0,-100.00,SSE,147,30.0,40.0,63,0.00,,,-99.99,,2013-01-15 09:02:00,
2013-01-15 02:12:00,0.0,-10.0,-100.00,SSE,147,30.0,40.0,63,0.00,,,-99.99,,2013-01-15 09:12:00,
2013-01-15 02:22:00,0.0,-10.0,-100.00,SE,140,27.0,37.0,62,0.00,,,-99.99,,2013-01-15 09:22:00,
2013-01-15 02:33:00,0.0,-9.0,-100.00,SE,140,28.0,35.0,63,0.00,,,-99.99,,2013-01-15 09:33:00,
2013-01-15 02:42:00,1.0,-9.0,-100.00,SE,140,28.0,35.0,64,0.00,,,-99.99,,2013-01-15 09:42:00,
2013-01-15 02:52:00,1.0,-9.0,-100.00,SE,141,28.0,35.0,63,0.00,,,-99.99,,2013-01-15 09:52:00,
2013-01-15 03:11:00,1.0,-8.0,-100.00,SE,140,29.0,36.0,65,0.00,,,-99.99,,2013-01-15 10:11:00,
2013-01-15 03:22:00,1.0,-7.0,-100.00,SE,140,30.0,38.0,66,0.00,,,-99.99,,2013-01-15 10:22:00,
2013-01-15 03:32:00,1.0,-7.0,-100.00,SE,143,28.0,39.0,66,0.00,,,-99.99,,2013-01-15 10:32:00,
2013-01-15 03:42:00,1.0,-7.0,-100.00,SE,144,27.0,35.0,66,0.00,,,-99.99,,2013-01-15 10:42:00,
2013-01-15 03:52:00,2.0,-7.0,-100.00,SE,140,29.0,39.0,65,0.00,,,-99.99,,2013-01-15 10:52:00,
2013-01-15 04:02:00,2.0,-7.0,-100.00,SE,137,28.0,37.0,66,0.00,,,-99.99,,2013-01-15 11:02:00,
2013-01-15 04:12:00,2.0,-7.0,-100.00,SE,134,27.0,35.0,66,0.00,,,-99.99,,2013-01-15 11:12:00,
2013-01-15 04:22:00,2.0,-7.0,-100.00,SE,131,23.0,31.0,66,0.00,,,-99.99,,2013-01-15 11:22:00,
2013-01-15 04:32:00,2.0,-6.0,-100.00,SE,137,26.0,34.0,66,0.00,,,-99.99,,2013-01-15 11:32:00,
2013-01-15 04:43:00,-999.0,-99.9,-100.00,SE,138,24.0,34.0,-999,-99.99,,,-99.99,,2013-01-15 11:43:00,
2013-01-15 04:52:00,2.0,-6.0,-100.00,SE,136,27.0,38.0,67,0.00,,,-99.99,,2013-01-15 11:52:00,
2013-01-15 05:02:00,2.0,-5.0,-100.00,SE,138,28.0,38.0,69,0.00,,,-99.99,,2013-01-15 12:02:00,
2013-01-15 05:12:00,2.0,-6.0,-100.00,SE,140,29.0,41.0,69,0.00,,,-99.99,,2013-01-15 12:12:00,
2013-01-15 05:22:00,2.0,-5.0,-100.00,SE,140,29.0,42.0,70,0.00,,,-99.99,,2013-01-15 12:22:00,
2013-01-15 05:33:00,2.0,-5.0,-100.00,SE,140,30.0,44.0,70,0.00,,,-99.99,,2013-01-15 12:33:00,
2013-01-15 05:42:00,2.0,-5.0,-100.00,SE,138,29.0,39.0,71,0.00,,,-99.99,,2013-01-15 12:42:00,
2013-01-15 05:53:00,3.0,-5.0,-100.00,SE,138,29.0,38.0,71,0.00,,,-99.99,,2013-01-15 12:53:00,
2013-01-15 06:03:00,3.0,-5.0,-100.00,SE,137,29.0,40.0,70,0.00,,,-99.99,,2013-01-15 13:03:00,
2013-01-15 06:12:00,3.0,-5.0,-100.00,SE,143,27.0,37.0,70,0.00,,,-99.99,,2013-01-15 13:12:00,
2013-01-15 06:23:00,4.0,-4.0,-100.00,SE,138,27.0,39.0,69,0.00,,,-99.99,,2013-01-15 13:23:00,
2013-01-15 06:33:00,4.0,-4.0,-100.00,SE,140,27.0,37.0,69,0.00,,,-99.99,,2013-01-15 13:33:00,
2013-01-15 06:42:00,4.0,-4.0,-100.00,SE,141,27.0,37.0,70,0.00,,,-99.99,,2013-01-15 13:42:00,
2013-01-15 06:53:00,4.0,-3.0,-100.00,SE,145,26.0,37.0,70,-99.99,,,-99.99,,2013-01-15 13:53:00,
2013-01-15 07:02:00,4.0,-3.0,-100.00,SE,143,26.0,35.0,70,0.00,,,-99.99,,2013-01-15 14:02:00,
2013-01-15 07:12:00,4.0,-3.0,-100.00,SE,141,25.0,35.0,69,0.00,,,-99.99,,2013-01-15 14:12:00,
2013-01-15 07:23:00,5.0,-3.0,-100.00,SE,140,26.0,38.0,68,0.00,,,-99.99,,2013-01-15 14:23:00,
2013-01-15 07:33:00,5.0,-4.0,-100.00,SE,137,26.0,34.0,68,0.00,,,-99.99,,2013-01-15 14:33:00,
2013-01-15 07:43:00,4.0,-4.0,-100.00,SE,137,27.0,35.0,68,0.00,,,-99.99,,2013-01-15 14:43:00,
2013-01-15 07:53:00,4.0,-4.0,-100.00,SE,137,27.0,35.0,68,0.00,,,-99.99,,2013-01-15 14:53:00,
2013-01-15 08:03:00,4.0,-4.0,-100.00,SE,141,27.0,35.0,69,0.00,,,-99.99,,2013-01-15 15:03:00,
2013-01-15 08:12:00,5.0,-4.0,-100.00,SE,140,27.0,35.0,68,0.00,,,-99.99,,2013-01-15 15:12:00,
2013-01-15 08:23:00,5.0,-3.0,-100.00,SE,138,28.0,38.0,67,0.00,,,-99.99,,2013-01-15 15:23:00,
2013-01-15 08:33:00,5.0,-3.0,-100.00,SE,138,24.0,32.0,68,0.00,,,-99.99,,2013-01-15 15:33:00,
2013-01-15 08:52:00,6.0,-3.0,-100.00,SE,138,26.0,37.0,68,0.00,,,-99.99,,2013-01-15 15:52:00,
2013-01-15 09:02:00,6.0,-2.0,-100.00,SE,143,29.0,37.0,68,0.00,,,-99.99,,2013-01-15 16:02:00,
2013-01-15 09:12:00,6.0,-2.0,-100.00,SE,141,28.0,36.0,69,0.00,,,-99.99,,2013-01-15 16:12:00,
2013-01-15 09:22:00,7.0,-2.0,-100.00,SE,145,29.0,41.0,68,0.00,,,-99.99,,2013-01-15 16:22:00,
2013-01-15 09:33:00,7.0,-1.0,-100.00,SE,143,27.0,36.0,68,0.00,,,-99.99,,2013-01-15 16:33:00,
2013-01-15 09:42:00,7.0,-1.0,-100.00,SE,145,28.0,40.0,67,0.00,,,-99.99,,2013-01-15 16:42:00,
2013-01-15 09:53:00,8.0,-1.0,-100.00,SE,140,26.0,40.0,68,0.00,,,-99.99,,2013-01-15 16:53:00,
2013-01-15 10:04:00,-999.0,-99.9,-100.00,SE,137,26.0,35.0,-999,-99.99,,,-99.99,,2013-01-15 17:04:00,
2013-01-15 10:12:00,8.0,-1.0,-100.00,SE,136,26.0,35.0,67,0.00,,,-99.99,,2013-01-15 17:12:00,
2013-01-15 10:22:00,8.0,0.0,-100.00,SE,144,27.0,35.0,68,0.00,,,-99.99,,2013-01-15 17:22:00,
2013-01-15 10:33:00,8.0,0.0,-100.00,SE,140,29.0,39.0,69,0.00,,,-99.99,,2013-01-15 17:33:00,
2013-01-15 10:42:00,9.0,0.0,-100.00,SE,141,27.0,35.0,69,0.00,,,-99.99,,2013-01-15 17:42:00,
2013-01-15 10:53:00,9.0,1.0,-100.00,SE,143,30.0,40.0,69,0.00,,,-99.99,,2013-01-15 17:53:00,
2013-01-15 11:03:00,-999.0,-99.9,-100.00,SE,144,27.0,35.0,-999,-99.99,,,-99.99,,2013-01-15 18:03:00,
2013-01-15 11:12:00,9.0,1.0,-100.00,SE,141,26.0,35.0,68,0.00,,,-99.99,,2013-01-15 18:12:00,
2013-01-15 11:23:00,9.0,1.0,-100.00,SE,141,26.0,35.0,69,0.00,,,-99.99,,2013-01-15 18:23:00,
2013-01-15 11:33:00,9.0,2.0,-100.00,SE,143,26.0,39.0,71,0.00,,,-99.99,,2013-01-15 18:33:00,
2013-01-15 11:42:00,9.0,2.0,-100.00,SE,144,27.0,37.0,70,0.00,,,-99.99,,2013-01-15 18:42:00,
2013-01-15 11:53:00,10.0,2.0,-100.00,SE,141,26.0,38.0,70,0.00,,,-99.99,,2013-01-15 18:53:00,
2013-01-15 12:03:00,10.0,2.0,-100.00,SE,138,26.0,35.0,69,0.00,,,-99.99,,2013-01-15 19:03:00,
2013-01-15 12:12:00,10.0,2.0,-100.00,SE,138,26.0,35.0,71,-99.99,,,-99.99,,2013-01-15 19:12:00,
2013-01-15 12:33:00,11.0,3.0,-100.00,SE,137,26.0,33.0,71,0.00,,,-99.99,,2013-01-15 19:33:00,
2013-01-15 12:42:00,11.0,3.0,-100.00,SE,140,29.0,39.0,69,0.00,,,-99.99,,2013-01-15 19:42:00,
2013-01-15 12:52:00,11.0,3.0,-100.00,SE,141,27.0,35.0,68,0.00,,,-99.99,,2013-01-15 19:52:00,
2013-01-15 13:03:00,12.0,4.0,-100.00,SE,141,26.0,32.0,70,0.00,,,-99.99,,2013-01-15 20:03:00,
2013-01-15 13:12:00,12.0,4.0,-100.00,SE,143,26.0,32.0,69,0.00,,,-99.99,,2013-01-15 20:12:00,
2013-01-15 13:23:00,12.0,4.0,-100.00,SE,143,26.0,34.0,70,0.00,,,-99.99,,2013-01-15 20:23:00,
2013-01-15 13:33:00,12.0,5.0,-100.00,SE,145,26.0,35.0,71,0.00,,,-99.99,,2013-01-15 20:33:00,
2013-01-15 13:43:00,12.0,4.0,-100.00,SE,145,27.0,34.0,71,0.00,,,-99.99,,2013-01-15 20:43:00,
2013-01-15 13:52:00,12.0,5.0,-100.00,SE,144,26.0,32.0,71,0.00,,,-99.99,,2013-01-15 20:52:00,
2013-01-15 14:03:00,13.0,6.0,-100.00,SSE,151,24.0,30.0,73,0.00,,,-99.99,,2013-01-15 21:03:00,
2013-01-15 14:12:00,12.0,5.0,-100.00,SSE,151,25.0,32.0,73,0.00,,,-99.99,,2013-01-15 21:12:00,
2013-01-15 14:23:00,12.0,5.0,-100.00,SE,141,25.0,32.0,72,0.00,,,-99.99,,2013-01-15 21:23:00,
2013-01-15 14:33:00,12.0,5.0,-100.00,SSE,147,28.0,35.0,73,0.00,,,-99.99,,2013-01-15 21:33:00,
2013-01-15 14:43:00,13.0,6.0,-100.00,SE,145,25.0,33.0,73,0.00,,,-99.99,,2013-01-15 21:43:00,
2013-01-15 14:52:00,13.0,6.0,-100.00,SE,144,26.0,32.0,72,0.00,,,-99.99,,2013-01-15 21:52:00,
2013-01-15 15:03:00,13.0,6.0,-100.00,SE,144,24.0,32.0,72,0.00,,,-99.99,,2013-01-15 22:03:00,
2013-01-15 15:12:00,13.0,6.0,-100.00,SE,143,23.0,31.0,71,0.00,,,-99.99,,2013-01-15 22:12:00,
2013-01-15 15:23:00,13.0,6.0,-100.00,SE,145,22.0,29.0,72,0.00,,,-99.99,,2013-01-15 22:23:00,
2013-01-15 15:33:00,14.0,6.0,-100.00,SE,144,23.0,32.0,71,0.00,,,-99.99,,2013-01-15 22:33:00,
2013-01-15 15:43:00,14.0,6.0,-100.00,SE,144,23.0,32.0,71,0.00,,,-99.99,,2013-01-15 22:43:00,
2013-01-15 15:52:00,12.0,6.0,-100.00,SSE,147,28.0,36.0,74,0.00,,,-99.99,,2013-01-15 22:52:00,
2013-01-15 16:02:00,12.0,5.0,-100.00,SSE,147,28.0,35.0,75,0.00,,,-99.99,,2013-01-15 23:02:00,
2013-01-15 16:12:00,13.0,6.0,-100.00,SE,145,27.0,35.0,74,0.00,,,-99.99,,2013-01-15 23:12:00,
2013-01-15 16:22:00,12.0,5.0,-100.00,SE,143,26.0,35.0,73,0.00,,,-99.99,,2013-01-15 23:22:00,
2013-01-15 16:32:00,13.0,6.0,-100.00,SE,138,27.0,35.0,72,0.00,,,-99.99,,2013-01-15 23:32:00,
2013-01-15 16:42:00,13.0,5.0,-100.00,SE,136,28.0,37.0,70,0.00,,,-99.99,,2013-01-15 23:42:00,
2013-01-15 16:53:00,13.0,5.0,-100.00,SE,138,26.0,32.0,70,0.00,,,-99.99,,2013-01-15 23:53:00,
2013-01-15 17:02:00,13.0,6.0,-100.00,SE,138,26.0,34.0,71,0.00,,,-99.99,,2013-01-16 00:02:00,
2013-01-15 17:12:00,13.0,6.0,-100.00,SE,138,25.0,32.0,71,0.00,,,-99.99,,2013-01-16 00:12:00,
2013-01-15 17:22:00,14.0,6.0,-100.00,SE,140,27.0,35.0,70,0.00,,,-99.99,,2013-01-16 00:22:00,
2013-01-15 17:32:00,14.0,6.0,-100.00,SE,134,26.0,35.0,71,0.00,,,-99.99,,2013-01-16 00:32:00,
2013-01-15 17:43:00,14.0,6.0,-100.00,SE,133,24.0,35.0,72,0.00,,,-99.99,,2013-01-16 00:43:00,
2013-01-15 17:52:00,15.0,7.0,-100.00,SE,133,26.0,37.0,70,0.00,,,-99.99,,2013-01-16 00:52:00,
2013-01-15 18:03:00,-999.0,-99.9,-100.00,SE,131,24.0,36.0,-999,-99.99,,,-99.99,,2013-01-16 01:03:00,
2013-01-15 18:12:00,14.0,7.0,-100.00,SE,133,24.0,36.0,71,0.00,,,-99.99,,2013-01-16 01:12:00,
2013-01-15 18:22:00,15.0,7.0,-100.00,SE,134,26.0,36.0,70,0.00,,,-99.99,,2013-01-16 01:22:00,
2013-01-15 18:33:00,16.0,7.0,-100.00,SE,136,26.0,36.0,69,0.00,,,-99.99,,2013-01-16 01:33:00,
2013-01-15 18:43:00,-999.0,-99.9,-100.00,SE,134,26.0,39.0,-999,-99.99,,,-99.99,,2013-01-16 01:43:00,
2013-01-15 18:52:00,16.0,8.0,-100.00,SE,134,26.0,35.0,69,0.00,,,-99.99,,2013-01-16 01:52:00,
2013-01-15 19:02:00,16.0,8.0,-100.00,SE,138,27.0,34.0,70,0.00,,,-99.99,,2013-01-16 02:02:00,
2013-01-15 19:12:00,16.0,8.0,-100.00,SE,138,29.0,37.0,69,0.00,,,-99.99,,2013-01-16 02:12:00,
2013-01-15 19:22:00,16.0,8.0,-100.00,SE,138,28.0,37.0,70,0.00,,,-99.99,,2013-01-16 02:22:00,
2013-01-15 19:32:00,17.0,8.0,-100.00,SE,140,30.0,37.0,69,0.00,,,-99.99,,2013-01-16 02:32:00,
2013-01-15 19:42:00,17.0,9.0,-100.00,SE,137,30.0,37.0,70,0.00,,,-99.99,,2013-01-16 02:42:00,
2013-01-15 19:52:00,17.0,9.0,-100.00,SE,137,29.0,37.0,70,0.00,,,-99.99,,2013-01-16 02:52:00,
2013-01-15 20:02:00,17.0,9.0,-100.00,SE,134,24.0,34.0,70,0.00,,,-99.99,,2013-01-16 03:02:00,
2013-01-15 20:12:00,17.0,9.0,-100.00,SE,143,24.0,30.0,71,0.00,,,-99.99,,2013-01-16 03:12:00,
2013-01-15 20:22:00,17.0,9.0,-100.00,SSE,148,27.0,37.0,71,0.00,,,-99.99,,2013-01-16 03:22:00,
2013-01-15 20:32:00,17.0,9.0,-100.00,SE,144,27.0,35.0,71,0.00,,,-99.99,,2013-01-16 03:32:00,
2013-01-15 20:42:00,17.0,9.0,-100.00,SE,144,26.0,31.0,72,0.00,,,-99.99,,2013-01-16 03:42:00,
2013-01-15 20:52:00,17.0,9.0,-100.00,SE,144,26.0,35.0,71,0.00,,,-99.99,,2013-01-16 03:52:00,
2013-01-15 21:02:00,16.0,9.0,-100.00,SE,143,25.0,33.0,72,0.00,,,-99.99,,2013-01-16 04:02:00,
2013-01-15 21:22:00,17.0,9.0,-100.00,SE,141,26.0,32.0,73,0.00,,,-99.99,,2013-01-16 04:22:00,
2013-01-15 21:32:00,16.0,9.0,-100.00,SE,141,26.0,37.0,73,0.00,,,-99.99,,2013-01-16 04:32:00,
2013-01-15 21:42:00,16.0,9.0,-100.00,SE,140,28.0,37.0,74,0.00,,,-99.99,,2013-01-16 04:42:00,
2013-01-15 21:52:00,16.0,10.0,-100.00,SE,138,28.0,37.0,76,0.00,,,-99.99,,2013-01-16 04:52:00,
2013-01-15 22:03:00,17.0,10.0,-100.00,SE,138,29.0,37.0,75,0.00,,,-99.99,,2013-01-16 05:03:00,
2013-01-15 22:12:00,17.0,10.0,-100.00,SE,138,29.0,37.0,75,0.00,,,-99.99,,2013-01-16 05:12:00,
2013-01-15 22:22:00,17.0,11.0,-100.00,SE,141,24.0,30.0,75,0.00,,,-99.99,,2013-01-16 05:22:00,
2013-01-15 22:32:00,17.0,10.0,-100.00,SE,143,26.0,35.0,76,-99.99,,,-99.99,,2013-01-16 05:32:00,
2013-01-15 22:42:00,16.0,10.0,-100.00,SE,143,28.0,37.0,80,0.00,,,-99.99,,2013-01-16 05:42:00,
2013-01-15 22:53:00,16.0,11.0,-100.00,SE,141,25.0,35.0,81,0.00,,,-99.99,,2013-01-16 05:53:00,
2013-01-15 23:02:00,16.0,11.0,-100.00,SE,141,29.0,37.0,81,0.00,,,-99.99,,2013-01-16 06:02:00,
2013-01-15 23:12:00,17.0,12.0,-100.00,SE,144,30.0,39.0,79,0.00,,,-99.99,,2013-01-16 06:12:00,
2013-01-15 23:22:00,17.0,11.0,-100.00,SE,138,27.0,33.0,79,0.00,,,-99.99,,2013-01-16 06:22:00,
2013-01-15 23:32:00,17.0,11.0,-100.00,SE,140,29.0,37.0,77,0.00,,,-99.99,,2013-01-16 06:32:00,
2013-01-15 23:42:00,17.0,11.0,-100.00,SE,141,29.0,38.0,78,0.00,,,-99.99,,2013-01-16 06:42:00,
2013-01-15 23:52:00,17.0,11.0,-100.00,SE,143,29.0,38.0,78,0.00,,,-99.99,,2013-01-16 06:52:00,